Weather History for Marion, IN

Change the Weather History Date:

Thursday, February 6, 2014

  Actual Average (KMIE) Record (KMIE)
Temperature  
Mean Temperature 4 °F 28 °F  
Max Temperature 25 °F 35 °F 51 °F (1999)
Min Temperature -10 °F 20 °F -5 °F (1982)
Degree Days  
Heating Degree Days 61 37  
Month to date heating degree days 227  
Since 1 July heating degree days 3620  
Cooling Degree Days 0 0  
Month to date cooling degree days 0  
Year to date cooling degree days 0  
Moisture  
Dew Point -2 °F    
Average Humidity 78    
Maximum Humidity 88    
Minimum Humidity 65    
Precipitation  
Precipitation 0.00 in 0.09 in 0.50 in (2008)
Month to date precipitation 0.48  
Year to date precipitation 2.71  
Sea Level Pressure  
Sea Level Pressure 30.41 in    
Wind  
Wind Speed 7 mph (West)    
Max Wind Speed 17 mph    
Max Gust Speed -    
Visibility 8 miles    
Events Snow    
T = Trace of Precipitation, MM = Missing Value Source: NWS Daily Summary

Daily Weather History Graph

Daily Weather History Graph

Search for Another Location

Airport:

Trip Planner

Search our weather history database for the weather conditions in past years. The results will help you decide how hot, cold, wet, or windy it might be!

Date:

Astronomy

Feb. 06, 2014 Rise Set
Actual Time 7:47 AM EST 6:07 PM EST
Civil Twilight 7:18 AM EST 6:35 PM EST
Nautical Twilight 6:46 AM EST 7:07 PM EST
Astronomical Twilight 6:14 AM EST 7:39 PM EST
Moon 11:38 AM EST (2/6) 1:02 AM EST (2/6)
Length of Visible Light 11h 17m
Length of Day
10h 20m
Waxing Crescent, 49% of the Moon is Illuminated
Feb 6
Waxing Crescent
Feb 6
First Quarter
Feb 14
Full
Feb 22
Last Quarter
Mar 1
New

Hourly Weather History & Observations

Time (EST) Temp. Windchill Dew Point Humidity Pressure Visibility Wind Dir Wind Speed Gust Speed Precip Events Conditions
12:15 AM 15.3 °F 6.6 °F 9.1 °F 77% 30.39 in 10.0 mi North 5.8 mph - N/A   Mostly Cloudy
12:35 AM 15.1 °F 7.7 °F 9.1 °F 77% 30.39 in 5.0 mi NNW 4.6 mph - N/A Snow Light Snow
12:55 AM 13.8 °F 8.0 °F 8.4 °F 79% 30.39 in 10.0 mi NNW 3.5 mph - N/A   Overcast
1:15 AM 14.5 °F 8.8 °F 9.3 °F 80% 30.39 in 7.0 mi NNW 3.5 mph - N/A   Overcast
1:35 AM 16.2 °F 7.6 °F 10.2 °F 77% 30.39 in 4.0 mi NNW 5.8 mph - N/A Snow Light Snow
1:55 AM 16.0 °F 8.8 °F 10.2 °F 78% 30.39 in 10.0 mi NW 4.6 mph - N/A Snow Light Snow
2:15 AM 15.3 °F 9.6 °F 10.2 °F 80% 30.39 in 7.0 mi NW 3.5 mph - N/A Snow Light Snow
2:35 AM 14.2 °F - 9.5 °F 82% 30.39 in 4.0 mi Calm Calm - N/A Snow Light Snow
2:55 AM 12.9 °F 5.2 °F 8.6 °F 83% 30.39 in 10.0 mi West 4.6 mph - N/A   Overcast
3:15 AM 11.8 °F 3.9 °F 8.2 °F 85% 30.39 in 7.0 mi West 4.6 mph - N/A Snow Light Snow
3:35 AM 11.8 °F 3.9 °F 8.4 °F 86% 30.39 in 5.0 mi West 4.6 mph - N/A Snow Light Snow
3:55 AM 12.4 °F - 9.1 °F 87% 30.38 in 5.0 mi Calm Calm - N/A Snow Light Snow
4:15 AM 12.4 °F - 9.3 °F 88% 30.38 in 7.0 mi Calm Calm - N/A Snow Light Snow
4:35 AM 12.4 °F 4.6 °F 9.1 °F 87% 30.38 in 4.0 mi West 4.6 mph - N/A Snow Light Snow
4:55 AM 12.2 °F 0.7 °F 9.1 °F 88% 30.38 in 7.0 mi West 8.1 mph - N/A Snow Light Snow
5:15 AM 12.2 °F 1.7 °F 9.3 °F 88% 30.38 in 10.0 mi WNW 6.9 mph - N/A   Overcast
5:35 AM 10.6 °F -1.3 °F 7.5 °F 87% 30.38 in 7.0 mi WNW 8.1 mph - N/A   Mostly Cloudy
5:55 AM 8.1 °F -2.0 °F 5.2 °F 88% 30.39 in 10.0 mi WNW 5.8 mph - N/A   Scattered Clouds
6:15 AM 5.9 °F -5.8 °F 2.7 °F 87% 30.39 in 7.0 mi West 6.9 mph - N/A   Clear
6:35 AM 5.2 °F -9.8 °F 2.3 °F 88% 30.39 in 10.0 mi West 10.4 mph - N/A   Mostly Cloudy
6:55 AM 7.9 °F -8.6 °F 4.8 °F 87% 30.39 in 10.0 mi WNW 13.8 mph - N/A   Overcast
7:15 AM 7.5 °F -6.0 °F 3.9 °F 85% 30.40 in 10.0 mi WNW 9.2 mph - N/A   Overcast
7:35 AM 4.8 °F -7.1 °F 1.0 °F 84% 30.39 in 7.0 mi West 6.9 mph - N/A   Scattered Clouds
7:55 AM 1.8 °F -12.0 °F -2.2 °F 83% 30.40 in 7.0 mi West 8.1 mph - N/A   Clear
8:15 AM 0.7 °F -14.4 °F -3.1 °F 84% 30.40 in 5.0 mi West 9.2 mph - N/A Snow Light Snow
8:35 AM 0.5 °F -12.3 °F -3.6 °F 83% 30.42 in 5.0 mi West 6.9 mph - N/A Snow Light Snow
8:55 AM -0.2 °F -8.1 °F -4.2 °F 83% 30.42 in 10.0 mi West 3.5 mph - N/A Snow Light Snow
9:15 AM 0.5 °F -9.3 °F -3.5 °F 83% 30.42 in 10.0 mi WSW 4.6 mph - N/A   Mostly Cloudy
9:35 AM 2.1 °F -9.0 °F -1.8 °F 83% 30.44 in 4.0 mi WSW 5.8 mph - N/A Snow Light Snow
9:55 AM 4.5 °F -10.7 °F 0.7 °F 84% 30.45 in 4.0 mi WSW 10.4 mph - N/A Snow Light Snow
10:15 AM 5.5 °F -8.4 °F 1.9 °F 85% 30.43 in 3.0 mi WSW 9.2 mph - N/A Snow Light Snow
10:35 AM 6.3 °F -8.4 °F 2.5 °F 84% 30.45 in 2.5 mi WSW 10.4 mph - N/A Snow Light Snow
10:55 AM 6.8 °F -7.8 °F 2.8 °F 84% 30.45 in 4.0 mi WSW 10.4 mph - N/A Snow Light Snow
11:15 AM 7.0 °F -6.6 °F 3.0 °F 84% 30.44 in 5.0 mi WSW 9.2 mph - N/A Snow Light Snow
11:35 AM 7.7 °F -8.2 °F 2.8 °F 81% 30.44 in 2.0 mi WSW 12.7 mph - N/A Snow Light Snow
11:55 AM 7.5 °F -9.1 °F 1.6 °F 77% 30.45 in 3.0 mi WSW 13.8 mph - N/A Snow Light Snow
12:15 PM 7.0 °F -9.1 °F 0.9 °F 76% 30.44 in 5.0 mi WSW 12.7 mph - N/A Snow Light Snow
12:35 PM 6.8 °F -10.7 °F 0.5 °F 75% 30.43 in 10.0 mi West 15.0 mph - N/A   Overcast
12:55 PM 6.6 °F -11.5 °F -0.4 °F 73% 30.43 in 10.0 mi West 16.1 mph - N/A   Overcast
1:15 PM 6.4 °F -12.3 °F -0.9 °F 72% 30.42 in 2.5 mi West 17.3 mph - N/A   Haze
1:35 PM 6.6 °F -10.9 °F -1.1 °F 71% 30.41 in 7.0 mi West 15.0 mph - N/A   Scattered Clouds
1:55 PM 6.8 °F -11.3 °F -1.8 °F 68% 30.41 in 3.0 mi West 16.1 mph - N/A   Haze
2:15 PM 6.8 °F -9.3 °F -2.0 °F 67% 30.41 in 10.0 mi West 12.7 mph - N/A   Clear
2:35 PM 6.1 °F -10.9 °F -2.4 °F 68% 30.40 in 10.0 mi WNW 13.8 mph - N/A   Clear
2:55 PM 5.7 °F -11.4 °F -3.3 °F 66% 30.40 in 7.0 mi WNW 13.8 mph - N/A   Clear
3:15 PM 5.4 °F -12.5 °F -3.8 °F 66% 30.40 in 5.0 mi WNW 15.0 mph - N/A   Haze
3:35 PM 5.0 °F -11.6 °F -4.4 °F 65% 30.40 in 10.0 mi WNW 12.7 mph - N/A   Clear
3:55 PM 4.6 °F -12.8 °F -4.7 °F 65% 30.40 in 10.0 mi WNW 13.8 mph - N/A   Clear
4:15 PM 4.1 °F -13.4 °F -5.1 °F 66% 30.39 in 7.0 mi WNW 13.8 mph - N/A   Clear
4:35 PM 3.6 °F -13.4 °F -5.3 °F 67% 30.40 in 10.0 mi West 12.7 mph - N/A   Clear
4:55 PM 3.0 °F -13.3 °F -5.8 °F 67% 30.39 in 10.0 mi WNW 11.5 mph - N/A   Clear
5:15 PM 2.5 °F -14.0 °F -6.2 °F 67% 30.40 in 10.0 mi West 11.5 mph - N/A   Clear
5:35 PM 0.5 °F -14.6 °F -7.2 °F 70% 30.40 in 10.0 mi West 9.2 mph - N/A   Clear
5:55 PM -1.3 °F -16.8 °F -8.3 °F 72% 30.39 in 10.0 mi West 9.2 mph - N/A   Clear
6:15 PM -2.2 °F -16.8 °F -9.0 °F 73% 30.39 in 10.0 mi West 8.1 mph - N/A   Clear
6:35 PM -2.6 °F -17.3 °F -9.0 °F 74% 30.39 in 10.0 mi WSW 8.1 mph - N/A   Clear
6:55 PM -2.9 °F -18.8 °F -9.9 °F 72% 30.40 in 10.0 mi WSW 9.2 mph - N/A   Clear
7:15 PM -3.6 °F -20.7 °F -10.3 °F 73% 30.41 in 10.0 mi WSW 10.4 mph - N/A   Clear
7:35 PM -2.4 °F -18.2 °F -9.4 °F 72% 30.40 in 10.0 mi WSW 9.2 mph - N/A   Clear
7:55 PM -6.5 °F -20.8 °F -13.4 °F 72% 30.41 in 10.0 mi West 6.9 mph - N/A   Clear
8:15 PM -8.7 °F -24.7 °F -14.8 °F 75% 30.41 in 10.0 mi West 8.1 mph - N/A   Clear
8:35 PM -8.1 °F -24.1 °F -14.3 °F 75% 30.41 in 10.0 mi WSW 8.1 mph - N/A   Clear
8:55 PM -6.9 °F -23.7 °F -13.0 °F 75% 30.42 in 10.0 mi WSW 9.2 mph - N/A   Clear
9:15 PM -5.3 °F -21.7 °F -11.6 °F 74% 30.42 in 10.0 mi WSW 9.2 mph - N/A   Clear
9:35 PM -5.1 °F -21.5 °F -11.7 °F 73% 30.41 in 10.0 mi West 9.2 mph - N/A   Clear
9:55 PM -6.2 °F -21.7 °F -12.6 °F 74% 30.41 in 10.0 mi West 8.1 mph - N/A   Clear
10:15 PM -7.2 °F -21.7 °F -13.4 °F 75% 30.41 in 10.0 mi WSW 6.9 mph - N/A   Clear
10:35 PM -7.1 °F -21.4 °F -13.2 °F 75% 30.41 in 10.0 mi WSW 6.9 mph - N/A   Clear
10:55 PM -8.1 °F -21.2 °F -14.1 °F 75% 30.41 in 10.0 mi WSW 5.8 mph - N/A   Clear
11:15 PM -7.8 °F -22.3 °F -13.7 °F 75% 30.41 in 10.0 mi West 6.9 mph - N/A   Clear
11:35 PM -8.5 °F -24.5 °F -14.4 °F 75% 30.41 in 10.0 mi West 8.1 mph - N/A   Clear
11:55 PM -10.5 °F -24.0 °F -16.1 °F 76% 30.41 in 10.0 mi WSW 5.8 mph - N/A   Clear